Precipitable_Water
0.76 0.88 0.96 0.94 0.98 0.98 0.97 1.00 1.03 1.06 1.04 0.91 0.85 0.95 1.16 1.27 1.25 1.18 1.10 1.00 0.97 0.92 0.85 0.82 0.75 0.67 0.65 0.66 0.61 0.61 0.60 0.59
0.74 0.82 0.87 0.93 0.97 0.96 0.98 0.99 1.03 1.06 0.98 0.83 0.82 0.96 1.08 1.17 1.21 1.19 1.11 1.01 0.97 0.92 0.84 0.81 0.74 0.68 0.69 0.68 0.64 0.61 0.59 0.65
0.71 0.74 0.80 0.84 0.89 0.94 0.97 0.98 1.03 1.05 0.99 0.88 0.92 0.98 1.07 1.14 1.21 1.20 1.14 1.04 0.98 0.92 0.86 0.83 0.79 0.75 0.71 0.67 0.62 0.59 0.62 0.70
0.70 0.72 0.75 0.77 0.79 0.85 0.91 0.97 1.02 1.04 1.01 0.96 1.03 1.10 1.10 1.13 1.17 1.19 1.23 1.12 1.01 0.95 0.91 0.84 0.78 0.75 0.69 0.66 0.63 0.61 0.66 0.73
0.70 0.74 0.74 0.75 0.79 0.85 0.87 0.92 0.98 1.05 1.08 1.03 0.98 0.94 0.95 1.08 1.18 1.22 1.17 1.13 1.08 0.97 0.92 0.86 0.76 0.70 0.66 0.65 0.69 0.74 0.76 0.73
0.65 0.70 0.78 0.87 0.89 0.86 0.92 0.96 0.99 1.03 1.07 1.05 1.03 1.03 1.09 1.12 1.11 1.12 1.11 1.09 1.08 1.05 0.99 0.87 0.75 0.70 0.69 0.71 0.74 0.78 0.85 0.71
0.73 0.76 0.86 0.87 0.95 0.99 1.00 0.99 1.00 1.04 1.08 1.08 1.05 1.08 1.13 1.11 1.06 1.02 1.02 1.04 1.06 1.03 0.99 0.96 0.82 0.77 0.78 0.80 0.79 0.87 0.83 0.78
0.78 0.83 0.84 0.91 0.95 1.00 1.06 1.08 1.06 1.12 1.14 1.13 1.15 1.14 1.17 1.14 1.10 1.10 1.09 1.08 1.05 1.04 0.99 0.98 0.91 0.88 0.89 0.83 0.80 0.92 0.81 0.74
0.72 0.77 0.84 0.91 0.99 1.05 1.07 1.07 1.10 1.15 1.15 1.16 1.20 1.17 1.16 1.16 1.12 1.14 1.16 1.11 1.08 1.07 1.02 1.05 0.94 0.92 0.87 0.80 0.93 0.86 0.78 0.66
0.62 0.73 0.81 0.88 0.97 1.04 1.09 1.12 1.16 1.20 1.19 1.22 1.19 1.18 1.13 1.08 1.14 1.14 1.11 1.08 1.04 1.02 1.05 1.04 0.93 0.88 0.80 0.89 0.87 0.76 0.68 0.69
0.55 0.60 0.66 0.77 0.91 1.01 1.08 1.15 1.17 1.22 1.26 1.22 1.15 1.10 1.08 1.13 1.24 1.16 1.13 1.11 1.08 1.01 0.99 0.94 0.94 0.91 0.84 0.92 0.74 0.69 0.68 0.72
0.56 0.57 0.63 0.67 0.76 0.86 0.94 1.02 1.07 1.11 1.19 1.12 1.07 1.05 1.12 1.17 1.13 1.15 1.13 1.11 1.07 1.02 0.99 1.00 0.98 0.84 0.85 0.73 0.65 0.64 0.64 0.69
0.56 0.60 0.64 0.69 0.71 0.73 0.78 0.89 0.95 1.00 0.95 0.94 0.98 1.14 1.15 1.08 1.03 1.02 1.05 1.03 1.01 0.99 0.99 0.95 0.81 0.78 0.73 0.63 0.63 0.64 0.68 0.69
0.56 0.61 0.66 0.62 0.58 0.64 0.69 0.73 0.77 0.85 0.93 1.00 1.05 1.04 1.05 1.05 1.00 0.97 0.96 0.91 0.90 0.94 0.93 0.81 0.76 0.71 0.64 0.63 0.67 0.71 0.73 0.67
0.50 0.58 0.64 0.67 0.71 0.75 0.78 0.83 0.90 0.95 0.95 0.95 0.96 0.95 0.94 0.93 0.91 0.90 0.89 0.89 0.86 0.87 0.83 0.75 0.70 0.68 0.61 0.66 0.71 0.73 0.71 0.64
0.52 0.57 0.64 0.71 0.76 0.80 0.85 0.90 0.94 0.96 0.90 0.84 0.81 0.81 0.79 0.77 0.77 0.79 0.81 0.83 0.81 0.80 0.76 0.65 0.68 0.65 0.68 0.75 0.74 0.70 0.67 0.61
0.55 0.57 0.61 0.65 0.70 0.75 0.78 0.77 0.77 0.77 0.72 0.66 0.64 0.65 0.64 0.64 0.66 0.69 0.72 0.73 0.72 0.67 0.64 0.64 0.67 0.74 0.74 0.75 0.72 0.67 0.64 0.59
0.53 0.56 0.59 0.61 0.63 0.65 0.64 0.64 0.66 0.64 0.61 0.60 0.60 0.59 0.59 0.63 0.65 0.64 0.63 0.64 0.65 0.64 0.65 0.69 0.69 0.65 0.69 0.69 0.66 0.63 0.60 0.56
0.53 0.55 0.57 0.59 0.61 0.61 0.60 0.59 0.58 0.56 0.54 0.53 0.55 0.57 0.58 0.61 0.63 0.65 0.65 0.66 0.66 0.65 0.65 0.64 0.62 0.65 0.66 0.64 0.63 0.60 0.54 0.46
Wind_Speed
14 15 16 17 16 16 16 15 14 13 13 14 14 15 14 14 14 13 13 12 12 12 11 12 12 12 13 14 16 18 20 21
14 15 16 15 16 15 15 14 13 13 13 14 15 15 14 14 15 14 14 14 14 13 13 13 14 14 15 16 18 19 21 24
15 16 16 16 16 15 15 14 14 13 13 13 14 15 15 16 16 16 16 16 16 16 17 17 17 16 17 18 19 21 23 25
15 17 17 17 17 17 16 15 15 14 14 14 14 15 15 17 18 18 17 17 18 19 19 19 19 19 20 20 22 23 26 29
16 17 17 17 18 17 17 16 16 16 17 16 17 17 17 18 19 19 20 20 20 21 21 22 22 22 23 23 24 26 28 31
17 17 18 18 18 18 18 18 18 18 18 19 18 20 19 19 20 21 22 22 23 23 23 24 24 24 25 25 26 28 31 31
20 19 19 19 19 19 19 20 19 19 20 21 21 20 21 21 22 22 22 22 23 24 24 26 26 26 27 27 28 31 31 32
22 23 23 22 22 22 22 22 22 21 21 22 22 23 22 24 24 25 25 25 25 26 26 27 27 26 27 28 31 32 33 34
24 24 25 25 25 25 25 24 24 24 23 23 23 23 23 25 26 26 27 26 26 27 28 27 28 29 29 30 32 30 34 36
21 23 24 25 26 26 26 26 26 25 25 24 24 24 25 26 26 26 27 27 27 28 29 30 30 30 29 32 32 34 36 37
14 17 20 22 24 25 26 26 26 26 25 24 25 25 26 26 27 27 26 27 28 28 29 30 29 28 30 34 35 36 36 37
11 13 14 16 18 20 21 23 23 22 23 23 24 25 25 26 25 26 28 28 29 29 31 29 31 32 35 35 35 35 36 38
11 11 12 13 15 16 17 18 20 21 20 21 22 23 25 25 26 27 28 29 30 31 31 32 32 34 32 34 34 35 36 39
13 12 12 12 12 13 14 15 16 18 19 20 22 24 25 26 27 28 29 30 31 32 32 33 32 33 33 35 35 37 40 39
13 13 13 13 13 14 15 16 17 18 19 21 22 24 26 27 28 30 30 30 30 30 31 32 33 32 33 34 36 38 39 39
12 13 14 13 13 13 14 15 16 18 19 20 22 23 25 26 27 28 28 28 29 29 30 31 32 32 33 34 36 39 40 41
10 10 12 12 12 13 13 14 15 17 18 20 22 23 25 25 25 25 26 27 28 29 30 31 31 34 34 36 39 41 42 44
10 10 11 11 11 12 13 14 16 18 19 21 22 23 23 23 24 25 26 27 28 29 30 31 33 34 38 40 41 43 45 46
12 11 11 12 12 12 13 14 16 17 19 20 21 21 22 23 24 25 26 27 28 29 30 31 34 37 38 40 43 45 45 45
Wind_Direction
171 170 170 172 170 171 173 175 179 183 187 190 190 194 199 205 210 213 214 218 221 228 237 245 254 265 277 287 297 302 306 309
182 180 179 179 183 184 184 185 187 188 192 195 200 204 211 214 216 217 220 227 231 238 246 250 259 268 279 288 295 300 305 308
190 189 190 190 189 191 193 195 197 200 202 205 209 213 219 222 223 226 230 236 242 247 251 257 263 271 279 287 294 300 304 307
197 198 199 200 201 202 204 207 209 211 214 216 220 223 228 229 232 235 237 246 251 254 256 259 264 272 279 286 293 299 304 306
205 205 206 208 210 213 216 218 220 223 224 226 229 233 236 238 241 242 246 254 257 259 259 261 266 272 279 285 292 297 302 307
215 215 215 217 219 221 224 226 228 231 232 235 238 240 244 246 247 247 253 258 260 262 263 264 267 274 277 284 291 296 301 305
224 224 224 225 226 228 229 231 234 237 240 241 242 245 247 249 250 251 256 261 261 263 266 266 268 275 278 283 289 295 299 300
231 230 230 231 232 233 234 236 238 241 243 245 246 249 253 254 255 257 260 263 265 267 268 271 268 274 277 281 289 292 295 298
235 235 235 236 237 237 238 240 242 242 244 246 250 254 257 260 261 262 265 270 270 268 269 271 272 275 275 282 291 290 295 298
243 238 238 240 239 240 241 242 243 244 245 249 253 256 259 263 264 265 270 272 270 272 271 273 273 274 276 287 288 292 294 297
240 238 241 242 239 240 242 243 243 245 246 251 256 259 263 267 270 269 272 274 273 275 275 275 269 269 278 287 289 291 292 297
240 239 241 238 236 239 241 240 240 244 248 254 258 262 267 272 275 273 275 276 275 276 276 273 272 275 282 286 287 292 294 297
250 245 240 235 236 240 238 238 240 244 251 257 262 265 272 275 277 277 278 278 278 276 275 276 276 279 281 286 287 293 296 296
249 246 241 234 234 236 236 238 243 250 257 262 267 271 275 277 279 281 280 280 278 276 276 277 279 279 283 286 287 290 296 295
251 243 240 239 242 245 245 248 253 256 262 269 273 277 279 281 282 283 282 281 280 279 278 277 280 278 284 288 290 293 295 296
252 242 239 241 248 250 253 255 259 264 271 276 279 282 283 285 285 285 284 283 282 282 280 281 281 277 286 289 294 295 296 297
244 238 237 243 249 254 257 262 268 272 278 281 284 285 287 288 288 287 287 286 285 284 283 283 284 282 286 289 292 296 296 298
240 242 243 246 251 257 264 269 274 279 282 285 287 289 289 290 290 290 291 289 288 287 286 285 285 285 289 291 294 296 297 298
243 246 247 250 256 263 269 275 281 285 288 291 291 292 293 293 294 294 293 292 291 290 290 288 289 291 291 293 295 297 297 298